ZKPCA EGPA-EGPA

Flight info

Callsign ZKPCA
Flight time 1h 2m
Altitude 3000
Route EGPA N0447A020 EGED EGEW EGEP EGEN EGES EGER EGPA
Aircraft C172/L-V/N

Departure

Time 2026-04-14 12:02
Airport Kirkwall Airport (EGPA)

Arrival

Time 2026-04-14 13:05
Airport Kirkwall Airport (EGPA)
Time Latitude Longitude Altitude Speed Heading
2026-04-14 11:53 58.95445 -2.90184 50 ft 0 kts 220°
2026-04-14 11:54 58.95429 -2.90143 46 ft 0 kts 214°
2026-04-14 11:54 58.95428 -2.90144 46 ft 0 kts 216°
2026-04-14 11:55 58.95418 -2.90132 48 ft 15 kts 126°
2026-04-14 11:55 58.95416 -2.90079 49 ft 0 kts 42°
2026-04-14 11:57 58.95435 -2.90055 49 ft 9 kts 30°
2026-04-14 11:58 58.95462 -2.89910 45 ft 18 kts 57°
2026-04-14 11:58 58.95577 -2.89702 43 ft 27 kts 40°
2026-04-14 11:58 58.95707 -2.89476 37 ft 16 kts 34°
2026-04-14 11:58 58.95780 -2.89395 35 ft 10 kts 14°
2026-04-14 11:59 58.95810 -2.89669 39 ft 54 kts 265°
2026-04-14 11:59 58.95804 -2.89920 43 ft 11 kts 302°
2026-04-14 11:59 58.95868 -2.90183 42 ft 25 kts 284°
2026-04-14 11:59 58.95896 -2.90288 42 ft 18 kts 323°
2026-04-14 12:00 58.95945 -2.90367 42 ft 0 kts 317°
2026-04-14 12:00 58.95968 -2.90407 42 ft 26 kts 319°
2026-04-14 12:00 58.96063 -2.90680 37 ft 6 kts 289°
2026-04-14 12:00 58.96071 -2.90743 34 ft 18 kts 282°
2026-04-14 12:01 58.96074 -2.90802 33 ft 4 kts 256°
2026-04-14 12:01 58.96073 -2.90829 32 ft 6 kts 274°
2026-04-14 12:01 58.96073 -2.90866 32 ft 2 kts 300°
2026-04-14 12:01 58.96052 -2.90891 31 ft 17 kts 177°
2026-04-14 12:02 58.95781 -2.90487 45 ft 80 kts 142°
2026-04-14 12:02 58.95425 -2.89556 460 ft 89 kts 105°
2026-04-14 12:02 58.95618 -2.88426 1034 ft 102 kts 50°
2026-04-14 12:02 58.96170 -2.87476 1534 ft 105 kts 54°
2026-04-14 12:03 58.96540 -2.86261 1954 ft 107 kts 64°
2026-04-14 12:03 58.97204 -2.85324 2276 ft 135 kts 25°
2026-04-14 12:03 58.98132 -2.85243 2762 ft 133 kts 346°
2026-04-14 12:03 58.98992 -2.85830 3241 ft 131 kts 339°
2026-04-14 12:04 58.99940 -2.86010 3471 ft 143 kts
2026-04-14 12:04 59.00891 -2.86323 3907 ft 139 kts 333°
2026-04-14 12:04 59.01790 -2.87109 4236 ft 144 kts 340°
2026-04-14 12:04 59.02755 -2.87504 4560 ft 151 kts 354°
2026-04-14 12:05 59.03759 -2.87644 5176 ft 128 kts 352°
2026-04-14 12:05 59.04806 -2.87788 4917 ft 177 kts
2026-04-14 12:05 59.05877 -2.87516 5726 ft 127 kts 356°
2026-04-14 12:05 59.06787 -2.87946 5655 ft 158 kts 353°
2026-04-14 12:06 59.07852 -2.87477 6127 ft 132 kts 33°
2026-04-14 12:06 59.08603 -2.86832 6453 ft 127 kts 15°
2026-04-14 12:06 59.09568 -2.86277 6227 ft 140 kts 21°
2026-04-14 12:06 59.10444 -2.85570 6227 ft 139 kts 29°
2026-04-14 12:07 59.11328 -2.84678 5186 ft 125 kts 24°
2026-04-14 12:07 59.12175 -2.84156 3578 ft 149 kts 17°
2026-04-14 12:07 59.13296 -2.83708 2246 ft 162 kts
2026-04-14 12:07 59.14386 -2.83523 1592 ft 134 kts 10°
2026-04-14 12:08 59.15133 -2.83447 1411 ft 96 kts 14°
2026-04-14 12:08 59.15879 -2.83161 1258 ft 118 kts 22°
2026-04-14 12:08 59.16689 -2.82754 1317 ft 115 kts 12°
2026-04-14 12:08 59.17395 -2.82680 1557 ft 92 kts
2026-04-14 12:09 59.18032 -2.82730 1417 ft 92 kts 335°
2026-04-14 12:09 59.18329 -2.83641 1027 ft 64 kts 229°
2026-04-14 12:09 59.18059 -2.83641 983 ft 52 kts 130°
2026-04-14 12:09 59.18066 -2.82808 922 ft 68 kts 93°
2026-04-14 12:10 59.18142 -2.81906 897 ft 68 kts 94°
2026-04-14 12:10 59.18256 -2.80934 773 ft 80 kts 83°
2026-04-14 12:10 59.18462 -2.79868 486 ft 79 kts 76°
2026-04-14 12:10 59.18592 -2.79277 332 ft 62 kts 83°
2026-04-14 12:11 59.18739 -2.78537 172 ft 61 kts 82°
2026-04-14 12:11 59.18914 -2.77766 51 ft 54 kts 81°
2026-04-14 12:11 59.18982 -2.77471 14 ft 0 kts 46°
2026-04-14 12:11 59.18986 -2.77268 15 ft 16 kts 107°
2026-04-14 12:12 59.18988 -2.77229 16 ft 2 kts 26°
2026-04-14 12:12 59.19098 -2.77145 15 ft 27 kts 17°
2026-04-14 12:12 59.19252 -2.77083 14 ft 18 kts
2026-04-14 12:12 59.19242 -2.77053 14 ft 9 kts 206°
2026-04-14 12:13 59.19208 -2.77057 14 ft 0 kts 168°
2026-04-14 12:14 59.19206 -2.77052 14 ft 2 kts 116°
2026-04-14 12:14 59.19245 -2.76981 13 ft 22 kts 38°
2026-04-14 12:14 59.19331 -2.76838 9 ft 2 kts 336°
2026-04-14 12:14 59.19351 -2.76922 12 ft 5 kts 296°
2026-04-14 12:15 59.19348 -2.77000 13 ft 12 kts 208°
2026-04-14 12:15 59.19161 -2.77023 14 ft 39 kts 171°
2026-04-14 12:15 59.18834 -2.77170 63 ft 59 kts 214°
2026-04-14 12:15 59.18780 -2.77318 43 ft 0 kts 17°
2026-04-14 12:16 59.19391 -2.77805 1578 ft 140 kts
2026-04-14 12:16 59.20347 -2.77822 1893 ft 145 kts
2026-04-14 12:16 59.21273 -2.78277 2367 ft 145 kts 322°
2026-04-14 12:17 59.21735 -2.80201 2386 ft 156 kts 272°
2026-04-14 12:17 59.21891 -2.82154 2817 ft 157 kts 284°
2026-04-14 12:17 59.22484 -2.84046 2736 ft 181 kts 300°
2026-04-14 12:17 59.23204 -2.86122 2747 ft 182 kts 304°
2026-04-14 12:18 59.24084 -2.87975 2641 ft 193 kts 314°
2026-04-14 12:18 59.25109 -2.89479 2943 ft 181 kts 322°
2026-04-14 12:18 59.26153 -2.90919 2722 ft 192 kts 319°
2026-04-14 12:18 59.26985 -2.92369 2905 ft 137 kts 309°
2026-04-14 12:19 59.27522 -2.93515 2286 ft 135 kts 303°
2026-04-14 12:19 59.28193 -2.95192 2170 ft 170 kts 302°
2026-04-14 12:19 59.29061 -2.97169 2548 ft 140 kts 322°
2026-04-14 12:19 59.29834 -2.98052 1893 ft 101 kts 339°
2026-04-14 12:20 59.30661 -2.98402 1710 ft 139 kts 358°
2026-04-14 12:20 59.31673 -2.98948 1791 ft 161 kts 332°
2026-04-14 12:20 59.32679 -2.99936 1715 ft 149 kts 336°
2026-04-14 12:20 59.33494 -3.00203 1045 ft 134 kts
2026-04-14 12:21 59.34056 -2.99768 680 ft 139 kts 126°
2026-04-14 12:21 59.34380 -2.98380 502 ft 117 kts 46°
2026-04-14 12:21 59.34756 -2.97341 314 ft 81 kts 70°
2026-04-14 12:21 59.34908 -2.96322 226 ft 76 kts 84°
2026-04-14 12:22 59.34980 -2.95435 56 ft 59 kts 94°
2026-04-14 12:22 59.35004 -2.95000 24 ft 0 kts 82°
2026-04-14 12:22 59.35011 -2.94945 28 ft 14 kts 82°
2026-04-14 12:22 59.35015 -2.94910 28 ft 0 kts 73°
2026-04-14 12:24 59.35015 -2.94911 26 ft 1 kts 76°
2026-04-14 12:24 59.35002 -2.95102 26 ft 14 kts 247°
2026-04-14 12:24 59.34986 -2.95226 27 ft 8 kts 268°
2026-04-14 12:24 59.34991 -2.95411 28 ft 17 kts 276°
2026-04-14 12:25 59.35004 -2.95459 28 ft 6 kts 86°
2026-04-14 12:25 59.34979 -2.95348 27 ft 7 kts 74°
2026-04-14 12:25 59.34999 -2.94891 27 ft 66 kts 96°
2026-04-14 12:25 59.34854 -2.93966 374 ft 76 kts 125°
2026-04-14 12:26 59.34710 -2.92847 585 ft 100 kts 120°
2026-04-14 12:26 59.34439 -2.91871 753 ft 81 kts 147°
2026-04-14 12:26 59.34575 -2.90724 306 ft 77 kts 52°
2026-04-14 12:26 59.34791 -2.90455 74 ft 19 kts 326°
2026-04-14 12:27 59.34803 -2.90466 77 ft 0 kts 352°
2026-04-14 12:27 59.34919 -2.90586 1576 ft 150 kts 351°
2026-04-14 12:27 59.35432 -2.92062 1321 ft 124 kts 221°
2026-04-14 12:27 59.34678 -2.91832 1011 ft 139 kts 152°
2026-04-14 12:28 59.34636 -2.90731 383 ft 100 kts 64°
2026-04-14 12:28 59.35137 -2.89991 99 ft 73 kts 42°
2026-04-14 12:28 59.35270 -2.89839 96 ft 1 kts
2026-04-14 12:28 59.35287 -2.89858 94 ft 0 kts 10°
2026-04-14 12:29 59.35308 -2.89825 95 ft 1 kts 86°
2026-04-14 12:29 59.35299 -2.89822 95 ft 0 kts 188°
2026-04-14 12:29 59.35286 -2.89837 96 ft 6 kts 207°
2026-04-14 12:29 59.35004 -2.89943 111 ft 73 kts 173°
2026-04-14 12:30 59.34562 -2.89619 556 ft 71 kts 135°
2026-04-14 12:30 59.34397 -2.88582 893 ft 99 kts 104°
2026-04-14 12:30 59.34313 -2.87278 1513 ft 92 kts 102°
2026-04-14 12:30 59.34509 -2.85794 1585 ft 128 kts 72°
2026-04-14 12:31 59.34976 -2.84276 1794 ft 144 kts 63°
2026-04-14 12:31 59.35364 -2.83154 1934 ft 145 kts 60°
2026-04-14 12:31 59.35839 -2.80881 2289 ft 132 kts 100°
2026-04-14 12:31 59.35700 -2.79151 2690 ft 122 kts 90°
2026-04-14 12:32 59.36269 -2.77726 2604 ft 162 kts 35°
2026-04-14 12:32 59.36927 -2.76905 2230 ft 153 kts 47°
2026-04-14 12:32 59.37229 -2.75474 1925 ft 94 kts 91°
2026-04-14 12:32 59.37233 -2.73959 1920 ft 117 kts 93°
2026-04-14 12:33 59.37307 -2.72373 2206 ft 123 kts 92°
2026-04-14 12:33 59.37491 -2.70651 2326 ft 140 kts 78°
2026-04-14 12:33 59.37720 -2.68656 2424 ft 136 kts 84°
2026-04-14 12:33 59.38085 -2.67078 2628 ft 152 kts 65°
2026-04-14 12:34 59.38747 -2.64747 2630 ft 140 kts 74°
2026-04-14 12:34 59.39189 -2.62630 2614 ft 140 kts 78°
2026-04-14 12:34 59.39382 -2.60645 2236 ft 148 kts 105°
2026-04-14 12:34 59.39199 -2.58563 2147 ft 158 kts 102°
2026-04-14 12:35 59.38930 -2.56614 2335 ft 130 kts 121°
2026-04-14 12:35 59.38621 -2.55128 2124 ft 122 kts 109°
2026-04-14 12:35 59.38445 -2.53577 1793 ft 112 kts 112°
2026-04-14 12:35 59.38173 -2.52206 1517 ft 108 kts 118°
2026-04-14 12:36 59.37993 -2.51335 1432 ft 101 kts 117°
2026-04-14 12:36 59.37765 -2.49621 1341 ft 98 kts 109°
2026-04-14 12:36 59.37520 -2.48922 1150 ft 99 kts 149°
2026-04-14 12:36 59.37136 -2.47811 913 ft 105 kts 120°
2026-04-14 12:37 59.36948 -2.46438 542 ft 105 kts 107°
2026-04-14 12:37 59.36846 -2.45101 318 ft 97 kts 104°
2026-04-14 12:37 59.36782 -2.43904 107 ft 70 kts 107°
2026-04-14 12:37 59.36755 -2.43283 59 ft 13 kts 103°
2026-04-14 12:38 59.36886 -2.42982 53 ft 17 kts 343°
2026-04-14 12:38 59.36875 -2.43032 54 ft 11 kts 182°
2026-04-14 12:38 59.36856 -2.43039 56 ft 0 kts 216°
2026-04-14 12:39 59.36795 -2.43097 58 ft 39 kts 205°
2026-04-14 12:40 59.36392 -2.43510 271 ft 72 kts 200°
2026-04-14 12:40 59.35894 -2.44090 538 ft 101 kts 209°
2026-04-14 12:40 59.35336 -2.45090 1006 ft 112 kts 224°
2026-04-14 12:40 59.34942 -2.46525 1429 ft 122 kts 239°
2026-04-14 12:41 59.34699 -2.48079 1794 ft 122 kts 258°
2026-04-14 12:41 59.34354 -2.49522 2122 ft 115 kts 218°
2026-04-14 12:41 59.33631 -2.50096 2370 ft 114 kts 186°
2026-04-14 12:41 59.32863 -2.50378 2695 ft 114 kts 185°
2026-04-14 12:42 59.32054 -2.50698 2759 ft 133 kts 186°
2026-04-14 12:42 59.31003 -2.51230 2892 ft 140 kts 195°
2026-04-14 12:42 59.30012 -2.51866 2546 ft 153 kts 195°
2026-04-14 12:42 59.29085 -2.52621 2647 ft 131 kts 204°
2026-04-14 12:43 59.28692 -2.54146 2363 ft 147 kts 274°
2026-04-14 12:43 59.29445 -2.55292 2136 ft 126 kts
2026-04-14 12:43 59.29817 -2.54570 2054 ft 74 kts 149°
2026-04-14 12:43 59.29306 -2.54635 1942 ft 77 kts 184°
2026-04-14 12:44 59.28732 -2.54869 1699 ft 90 kts 191°
2026-04-14 12:44 59.28137 -2.55285 1294 ft 90 kts 188°
2026-04-14 12:44 59.27599 -2.55622 1255 ft 74 kts 192°
2026-04-14 12:45 59.26482 -2.56360 913 ft 70 kts 171°
2026-04-14 12:45 59.26453 -2.55495 983 ft 109 kts 54°
2026-04-14 12:45 59.27181 -2.54786 928 ft 121 kts
2026-04-14 12:45 59.27290 -2.55934 810 ft 109 kts 208°
2026-04-14 12:46 59.26634 -2.56380 697 ft 89 kts 191°
2026-04-14 12:46 59.26030 -2.56761 409 ft 92 kts 195°
2026-04-14 12:46 59.25441 -2.57186 161 ft 83 kts 195°
2026-04-14 12:46 59.25150 -2.57417 47 ft 0 kts 177°
2026-04-14 12:47 59.25184 -2.57375 52 ft 0 kts 201°
2026-04-14 12:47 59.25180 -2.57377 51 ft 0 kts 200°
2026-04-14 12:48 59.25179 -2.57378 51 ft 1 kts 198°
2026-04-14 12:48 59.25170 -2.57383 50 ft 3 kts 193°
2026-04-14 12:48 59.24908 -2.57592 56 ft 75 kts 191°
2026-04-14 12:48 59.24357 -2.58092 397 ft 100 kts 198°
2026-04-14 12:49 59.23699 -2.58555 994 ft 94 kts 190°
2026-04-14 12:49 59.22991 -2.59073 1263 ft 113 kts 192°
2026-04-14 12:49 59.22222 -2.59588 1496 ft 127 kts 192°
2026-04-14 12:49 59.21312 -2.60114 1416 ft 141 kts 191°
2026-04-14 12:50 59.20443 -2.60543 1803 ft 127 kts 186°
2026-04-14 12:50 59.18692 -2.62009 988 ft 134 kts 199°
2026-04-14 12:50 59.18028 -2.62616 788 ft 89 kts 197°
2026-04-14 12:51 59.17339 -2.63006 554 ft 120 kts 187°
2026-04-14 12:51 59.16492 -2.63489 317 ft 142 kts 194°
2026-04-14 12:51 59.15635 -2.64086 47 ft 121 kts 194°
2026-04-14 12:51 59.14985 -2.64532 487 ft 85 kts 177°
2026-04-14 12:52 59.14577 -2.63683 630 ft 120 kts 79°
2026-04-14 12:52 59.15475 -2.63052 601 ft 161 kts
2026-04-14 12:52 59.16587 -2.62886 631 ft 141 kts 357°
2026-04-14 12:52 59.16931 -2.64065 626 ft 100 kts 205°
2026-04-14 12:53 59.16432 -2.63832 354 ft 81 kts 163°
2026-04-14 12:53 59.15776 -2.63992 66 ft 93 kts 195°
2026-04-14 12:53 59.15550 -2.64187 35 ft 1 kts 152°
2026-04-14 12:54 59.15700 -2.64037 27 ft 10 kts 198°
2026-04-14 12:54 59.15589 -2.63993 41 ft 1 kts 105°
2026-04-14 12:54 59.15673 -2.63932 27 ft 23 kts 328°
2026-04-14 12:55 59.15689 -2.63952 22 ft 0 kts 324°
2026-04-14 12:55 59.15714 -2.63963 25 ft 11 kts 335°
2026-04-14 12:55 59.15728 -2.63993 29 ft 9 kts 253°
2026-04-14 12:55 59.15462 -2.64194 36 ft 73 kts 199°
2026-04-14 12:56 59.15001 -2.65009 318 ft 107 kts 231°
2026-04-14 12:56 59.14647 -2.66273 894 ft 101 kts 231°
2026-04-14 12:56 59.14229 -2.67439 1356 ft 102 kts 213°
2026-04-14 12:56 59.13618 -2.68009 1801 ft 98 kts 188°
2026-04-14 12:57 59.12853 -2.68314 1507 ft 145 kts 194°
2026-04-14 12:57 59.12156 -2.69620 1918 ft 143 kts 249°
2026-04-14 12:57 59.11845 -2.71425 2163 ft 129 kts 223°
2026-04-14 12:57 59.11251 -2.72659 2508 ft 125 kts 225°
2026-04-14 12:58 59.10719 -2.74073 2571 ft 142 kts 223°
2026-04-14 12:58 59.09956 -2.75092 2639 ft 140 kts 201°
2026-04-14 12:58 59.09114 -2.75960 2642 ft 149 kts 206°
2026-04-14 12:58 59.08092 -2.77141 2951 ft 140 kts 184°
2026-04-14 12:59 59.07286 -2.77305 3058 ft 138 kts 182°
2026-04-14 12:59 59.06394 -2.77682 2313 ft 118 kts 193°
2026-04-14 12:59 59.05654 -2.78246 1788 ft 117 kts 193°
2026-04-14 12:59 59.04855 -2.78893 1751 ft 135 kts 198°
2026-04-14 13:00 59.03985 -2.79586 1834 ft 137 kts 197°
2026-04-14 13:00 59.02917 -2.80389 2227 ft 140 kts 189°
2026-04-14 13:00 59.02118 -2.81016 2316 ft 140 kts 205°
2026-04-14 13:00 59.01648 -2.81788 1433 ft 67 kts 225°
2026-04-14 13:01 59.01543 -2.83016 789 ft 122 kts 225°
2026-04-14 13:01 59.00958 -2.84017 982 ft 99 kts 208°
2026-04-14 13:01 59.00407 -2.84675 570 ft 90 kts 201°
2026-04-14 13:01 58.99862 -2.85638 756 ft 114 kts 208°
2026-04-14 13:02 58.99326 -2.86917 1070 ft 127 kts 233°
2026-04-14 13:02 58.98847 -2.88357 1335 ft 139 kts 227°
2026-04-14 13:02 58.98332 -2.89948 1563 ft 143 kts 233°
2026-04-14 13:02 58.97880 -2.91780 1389 ft 143 kts 237°
2026-04-14 13:03 58.97524 -2.93295 1399 ft 137 kts 236°
2026-04-14 13:03 58.97187 -2.95055 1534 ft 152 kts 265°
2026-04-14 13:03 58.97865 -2.95691 1233 ft 139 kts 38°
2026-04-14 13:03 58.97992 -2.94203 1148 ft 110 kts 131°
2026-04-14 13:04 58.97579 -2.93390 973 ft 63 kts 137°
2026-04-14 13:04 58.97272 -2.92882 705 ft 64 kts 141°
2026-04-14 13:04 58.96914 -2.92296 518 ft 68 kts 141°
2026-04-14 13:04 58.96520 -2.91648 304 ft 80 kts 137°
2026-04-14 13:05 58.96175 -2.91111 97 ft 48 kts 143°
2026-04-14 13:05 58.95992 -2.90801 33 ft 22 kts 137°
2026-04-14 13:05 58.95781 -2.90961 45 ft 0 kts 87°
2026-04-14 13:06 58.95777 -2.90890 44 ft 29 kts 109°
2026-04-14 13:06 58.95768 -2.90573 43 ft 1 kts 19°
2026-04-14 13:06 58.95816 -2.90576 41 ft 21 kts
2026-04-14 13:06 58.95883 -2.90699 38 ft 13 kts 206°
2026-04-14 13:07 58.95819 -2.90657 41 ft 0 kts 139°
2026-04-14 13:07 58.95737 -2.90575 44 ft 44 kts 136°
2026-04-14 13:08 58.95550 -2.90043 50 ft 1 kts 152°
2026-04-14 13:08 58.95485 -2.90123 47 ft 20 kts 191°
2026-04-14 13:08 58.95415 -2.90127 49 ft 0 kts 206°
2026-04-14 13:10 58.95434 -2.90079 55 ft 0 kts 208°